Miscellaneous Local Product
Issued by NWS Hastings, NE

Home | Current Version | Previous Version | Graphics & Text | Print | Product List | Glossary Off
Versions: 1 2 3 4 5 6 7 8 9 10 11 12 13 14 15 16 17 18 19 20 21 22 23 24 25 26 27 28 29 30 31 32 33 34 35 36 37 38 39 40 41 42 43 44 45 46 47 48 49 50

000
AXUS43 KGID 030702
MISGRI

GID CWA HOURLY WEATHER ROUNDUP
NATIONAL WEATHER SERVICE HASTINGS NE
200 AM CDT WED JUN 03 2015

NOTE: "FAIR" INDICATES FEW OR NO CLOUDS BELOW 12,000 FEET WITH NO
SIGNIFICANT WEATHER AND/OR OBSTRUCTIONS TO VISIBILITY.

...SOUTH CENTRAL NEBRASKA...

CITY           SKY/WX    TMP DP  RH WIND       PRES   REMARKS
GRAND ISLAND   LGT RAIN  66  56  70 NW29G40   29.96R
HASTINGS       CLOUDY    71  66  84 SE13G21   29.84R
KEARNEY        CLOUDY    63  55  77 N31G37    29.90R
ORD            TSTM      61  59  93 N12       29.91F
YORK           MOCLDY    68  64  88 S14       29.85F
AURORA         CLOUDY    68  67  94 SE13G21   29.84F
LEXINGTON      CLOUDY    65  56  73 NE16G31   29.86S
HOLDREGE       CLOUDY    70  64  82 E9        29.83R
HEBRON         MOCLDY    71  65  82 SE13      29.84F

...NEBRASKA PANHANDLE...

CITY           SKY/WX    TMP DP  RH WIND       PRES   REMARKS
CHADRON        CLEAR     54  50  86 NE6       29.94S
ALLIANCE       MOCLDY    58  53  84 N14       29.91R
SCOTTSBLUFF    PTCLDY    60  51  72 NE7       29.92R
SIDNEY         PTCLDY    63  56  78 N10       29.88S

...WESTERN AND NORTH CENTRAL NEBRASKA...

CITY           SKY/WX    TMP DP  RH WIND       PRES   REMARKS
VALENTINE      CLOUDY    64  55  72 W13       29.86R
AINSWORTH      CLOUDY    64  57  80 SE8       29.83F
ONEILL         RAIN      63  62  96 SW7       29.89F
BROKEN BOW     LGT RAIN  64  56  75 NE12G35   29.80R
IMPERIAL       PTCLDY    68  64  87 VRB3      29.77F
NORTH PLATTE   MOCLDY    62  54  74 E7        29.85R
MCCOOK         PTCLDY    71  64  78 SE7       29.75F

...EASTERN NEBRASKA...

CITY           SKY/WX    TMP DP  RH WIND       PRES   REMARKS
NORFOLK        CLOUDY    65  61  87 SE13      29.82F
SO SIOUX CITY  MOCLDY    64  57  78 SE12      29.86F
TEKAMAH        PTCLDY    63  58  83 SE12      29.87F
COLUMBUS       MOCLDY    66  59  77 SE10      29.86F
ALBION         CLOUDY    67  62  83 NW14G21   29.91R
OMAHA EPPLEY   PTCLDY    64  58  80 SE13      29.89F
OFFUTT AFB     CLEAR     62  58  87 E7        29.88F
MILLARD        CLEAR     65  59  80 SE9       29.89F
LINCOLN        PTCLDY    67  62  84 SE14      29.87F
NEBRASKA CITY  CLEAR     63  58  85 S8        29.90F
BEATRICE       PTCLDY    67  64  87 SE10G17   29.88R
FALLS CITY     CLEAR     65  58  78 SE8       29.91S

...NORTHERN KANSAS...

CITY           SKY/WX    TMP DP  RH WIND       PRES   REMARKS
GOODLAND       CLEAR     67  61  81 S13       29.80F
HILL CITY      CLEAR     74  62  66 S14G23    29.77F
NORTON         SUNNY     73  61  64 S10       29.77S
PHILLIPSBURG   CLEAR     73  66  78 E9        29.78F
SMITH CENTER   CLEAR     68  64  88 SE12      29.80F
BELOIT           N/A     72  66  83 SE10G17   29.81S
HAYS           CLEAR     72  61  68 S13       29.81S
RUSSELL        CLEAR     73  65  75 S18       29.80S
CONCORDIA      PTCLDY    70  66  87 SE13      29.85S
SALINA         CLEAR     73  67  81 SE12      29.85R
TOPEKA         CLOUDY    69  63  81 SE12      29.92S



USA.gov is the U.S. government's official web portal to all federal, state and local government web resources and services.